Date,Time,Wetness (Wet Dry or Ice),Wind Speed (m/s),Temperature (C),Humidity (%),Pressure (mb),Radiation (W/m^2)
2020-06-27,02:15:00,DRY,1.40,16.85,1.5,777.00,1.2
2020-06-27,02:20:00,DRY,1.40,16.67,1.0,777.00,0.8
2020-06-27,02:25:00,DRY,1.15,16.50,2.0,777.00,1.4
2020-06-27,02:30:00,DRY,1.00,16.93,1.0,777.00,1.0
2020-06-27,02:35:00,DRY,0.80,17.55,1.0,777.00,1.4
2020-06-27,02:40:00,DRY,1.07,17.57,1.0,777.00,2.0
2020-06-27,02:45:00,DRY,1.15,17.55,1.0,777.00,2.1
2020-06-27,02:50:00,DRY,1.07,17.67,1.3,777.00,1.6
2020-06-27,02:55:00,DRY,1.75,17.55,1.0,777.00,1.0
2020-06-27,03:00:00,DRY,1.60,17.13,1.3,777.00,0.8
2020-06-27,03:05:00,DRY,1.20,17.50,1.0,777.00,1.9
2020-06-27,03:10:00,DRY,0.70,17.37,1.0,777.00,1.7
2020-06-27,03:15:00,DRY,0.55,17.00,1.0,777.00,1.6
2020-06-27,03:20:00,DRY,0.67,16.70,1.3,777.00,1.7
2020-06-27,03:25:00,DRY,0.40,16.80,1.0,777.00,0.7
2020-06-27,03:30:00,DRY,0.53,16.93,1.0,777.00,1.2
2020-06-27,03:35:00,DRY,0.70,17.10,1.5,777.00,2.2
2020-06-27,03:40:00,DRY,0.53,16.60,2.3,777.00,0.6
2020-06-27,03:45:00,DRY,0.45,16.50,1.5,777.00,1.0
2020-06-27,03:50:00,DRY,0.63,16.73,1.3,777.00,1.2
2020-06-27,03:55:00,DRY,0.35,17.05,1.0,777.00,1.2
2020-06-27,04:00:00,DRY,0.67,16.20,6.3,776.33,1.5
2020-06-27,04:05:00,DRY,1.10,15.60,3.0,776.00,1.4
2020-06-27,04:10:00,DRY,1.10,16.60,1.7,776.67,1.2
2020-06-27,04:15:00,DRY,1.05,16.80,1.5,777.00,1.8
2020-06-27,04:20:00,DRY,0.33,17.07,1.7,777.00,1.2
2020-06-27,04:25:00,DRY,0.40,17.10,3.5,777.00,1.0
2020-06-27,04:30:00,DRY,0.40,16.90,3.7,777.00,0.8
2020-06-27,04:35:00,DRY,0.90,16.95,2.0,777.00,0.8
2020-06-27,04:40:00,DRY,0.60,16.43,1.3,777.00,1.4
2020-06-27,04:45:00,DRY,0.70,16.20,1.0,776.50,2.6
2020-06-27,04:50:00,DRY,1.00,16.67,1.0,776.67,1.4
2020-06-27,04:55:00,DRY,1.30,17.20,1.0,777.00,1.9
2020-06-27,05:00:00,DRY,1.13,17.07,2.3,777.00,0.6
2020-06-27,05:05:00,DRY,0.35,16.55,2.0,776.00,0.8
2020-06-27,05:10:00,DRY,0.60,16.37,2.3,776.33,0.8
2020-06-27,05:15:00,DRY,0.60,16.05,2.5,777.00,1.0
2020-06-27,05:20:00,DRY,0.50,15.67,2.0,777.00,0.9
2020-06-27,05:25:00,DRY,1.15,16.00,1.5,776.50,1.3
2020-06-27,05:30:00,DRY,0.40,15.90,2.3,777.00,1.3
2020-06-27,05:35:00,DRY,0.20,15.95,1.0,777.00,1.3
2020-06-27,05:40:00,DRY,0.57,16.00,1.0,777.00,1.4
2020-06-27,05:45:00,DRY,0.65,15.85,1.5,777.00,0.6
2020-06-27,05:50:00,DRY,0.40,15.87,1.0,777.00,1.7
2020-06-27,05:55:00,DRY,0.35,16.05,1.0,777.00,1.6
2020-06-27,06:00:00,DRY,0.30,16.13,1.0,777.00,2.2
2020-06-27,06:05:00,DRY,0.35,16.15,3.0,777.00,3.2
2020-06-27,06:10:00,DRY,0.23,16.03,3.0,777.00,5.7
2020-06-27,06:15:00,DRY,0.35,16.20,3.5,777.00,7.8
2020-06-27,06:20:00,DRY,0.33,16.57,6.0,777.00,10.9
2020-06-27,06:25:00,DRY,0.25,16.70,7.5,777.00,31.9
2020-06-27,06:30:00,DRY,0.57,16.87,7.3,777.00,49.0
2020-06-27,06:35:00,DRY,0.55,16.85,7.5,777.00,45.1
2020-06-27,06:40:00,DRY,0.67,16.47,8.0,777.00,43.2
2020-06-27,06:45:00,DRY,1.00,16.15,8.0,777.00,109.5
2020-06-27,06:50:00,DRY,0.90,16.60,8.3,777.00,137.2
2020-06-27,06:55:00,DRY,0.95,16.45,8.0,777.00,156.7
2020-06-27,07:00:00,DRY,1.20,15.83,9.0,777.00,176.6
2020-06-27,07:05:00,DRY,0.70,16.10,9.0,777.00,197.8
2020-06-27,07:10:00,DRY,0.43,16.80,8.0,777.00,219.1
2020-06-27,07:15:00,DRY,0.20,17.40,7.0,777.00,239.7
2020-06-27,07:20:00,DRY,0.33,17.90,7.3,777.00,261.5
2020-06-27,07:25:00,DRY,0.75,17.90,8.0,777.00,284.0
2020-06-27,07:30:00,DRY,0.47,18.13,5.3,777.00,306.2
2020-06-27,07:35:00,DRY,0.30,17.80,5.0,777.00,328.1
2020-06-27,07:40:00,DRY,0.37,18.40,6.3,777.00,350.5
2020-06-27,07:45:00,DRY,0.65,18.60,4.5,777.00,372.9
2020-06-27,07:50:00,DRY,0.57,18.00,7.3,777.00,395.5
2020-06-27,07:55:00,DRY,0.45,17.95,9.5,777.00,417.0
2020-06-27,08:00:00,DRY,0.57,18.47,9.3,777.00,439.1
2020-06-27,08:05:00,DRY,0.95,18.70,9.5,777.00,460.9
2020-06-27,08:10:00,DRY,1.30,17.73,12.3,777.00,482.6
2020-06-27,08:15:00,DRY,0.55,17.80,8.5,777.00,505.4
2020-06-27,08:20:00,DRY,0.70,18.30,10.7,777.00,526.4
2020-06-27,08:25:00,DRY,0.55,18.65,9.5,777.00,548.2
2020-06-27,08:30:00,DRY,1.33,18.77,10.0,777.00,569.0
2020-06-27,08:35:00,DRY,0.80,19.00,10.0,777.00,589.6
2020-06-27,08:40:00,DRY,0.87,18.93,9.7,777.00,610.6
2020-06-27,08:45:00,DRY,1.40,18.90,10.0,777.00,631.1
2020-06-27,08:50:00,DRY,1.43,18.87,9.3,777.00,651.1
2020-06-27,08:55:00,DRY,1.40,18.80,8.5,777.00,671.0
2020-06-27,09:00:00,DRY,1.60,18.93,8.7,777.00,691.0
2020-06-27,09:05:00,DRY,1.10,18.80,8.0,777.00,710.8
2020-06-27,09:10:00,DRY,0.97,19.17,10.3,777.00,730.7
2020-06-27,09:15:00,DRY,0.95,19.40,10.0,777.00,749.5
2020-06-27,09:20:00,DRY,1.43,19.50,10.0,777.00,768.8
2020-06-27,09:25:00,DRY,1.15,19.15,10.0,777.00,788.6
2020-06-27,09:30:00,DRY,1.27,19.63,11.0,777.00,805.3
2020-06-27,09:35:00,DRY,1.10,19.10,10.5,777.00,822.4
2020-06-27,09:40:00,DRY,1.40,19.40,10.3,777.00,840.5
2020-06-27,09:45:00,DRY,1.80,19.65,9.0,777.00,858.1
2020-06-27,09:50:00,DRY,1.73,19.80,9.3,777.00,874.3
2020-06-27,09:55:00,DRY,1.50,19.80,11.0,777.00,891.5
2020-06-27,10:00:00,DRY,2.40,20.13,10.7,777.00,905.7
2020-06-27,10:05:00,DRY,2.30,19.90,11.5,777.00,922.1
2020-06-27,10:10:00,DRY,1.80,19.83,12.0,777.00,938.5
2020-06-27,10:15:00,DRY,2.25,19.85,14.0,777.00,953.2
2020-06-27,10:20:00,DRY,1.67,19.80,12.0,777.00,968.8
2020-06-27,10:25:00,DRY,1.85,20.25,12.5,777.00,982.6
2020-06-27,10:30:00,DRY,1.93,19.97,13.0,777.00,996.2
2020-06-27,10:35:00,DRY,2.70,20.05,14.0,777.00,1011.5
2020-06-27,10:40:00,DRY,1.57,19.77,18.0,777.00,1021.2
2020-06-27,10:45:00,DRY,1.80,20.40,19.0,777.00,1036.2
2020-06-27,10:50:00,DRY,2.37,19.97,19.7,777.00,1047.8
2020-06-27,10:55:00,DRY,1.50,20.10,18.5,777.00,1060.0
2020-06-27,11:00:00,DRY,2.00,20.10,19.5,777.00,1069.2
2020-06-27,11:05:00,DRY,1.85,19.85,24.5,777.00,1077.2
2020-06-27,11:10:00,DRY,1.83,20.77,22.3,777.00,1090.7
2020-06-27,11:15:00,DRY,2.50,20.50,23.5,777.00,1101.7
2020-06-27,11:20:00,DRY,1.17,20.50,22.0,777.00,1111.0
2020-06-27,11:25:00,DRY,2.80,20.25,21.5,777.00,1120.0
2020-06-27,11:30:00,DRY,2.30,20.17,26.0,777.00,1130.9
2020-06-27,11:35:00,DRY,2.00,19.80,29.0,777.00,1140.0
2020-06-27,11:40:00,DRY,1.70,19.33,30.0,777.00,1147.2
2020-06-27,11:45:00,DRY,1.55,20.20,31.0,777.00,1154.7
2020-06-27,11:50:00,DRY,1.90,20.07,28.0,777.33,1157.3
2020-06-27,11:55:00,DRY,2.35,20.20,30.0,777.00,1162.0
2020-06-27,12:00:00,DRY,1.93,20.20,30.0,777.00,1169.6
2020-06-27,12:05:00,DRY,2.35,20.10,31.0,777.00,1174.4
2020-06-27,12:10:00,DRY,1.83,19.43,31.3,777.33,1180.5
2020-06-27,12:15:00,DRY,1.80,19.25,30.0,777.00,1188.2
2020-06-27,12:20:00,DRY,2.87,19.80,29.3,777.00,1191.6
2020-06-27,12:25:00,DRY,2.40,20.35,27.0,777.00,1193.3
2020-06-27,12:30:00,DRY,2.63,20.03,27.0,778.00,1197.1
2020-06-27,12:35:00,DRY,2.10,20.10,31.0,778.00,1200.1
2020-06-27,12:40:00,DRY,2.17,20.77,27.3,777.67,1201.5
2020-06-27,12:45:00,DRY,2.65,20.40,29.5,778.00,1205.2
2020-06-27,12:50:00,DRY,2.13,20.93,24.0,778.00,1206.6
2020-06-27,12:55:00,DRY,2.70,21.10,23.5,778.00,1205.3
2020-06-27,13:00:00,DRY,2.73,20.37,31.0,777.67,1206.1
2020-06-27,13:05:00,DRY,2.60,19.90,30.5,777.50,1207.3
2020-06-27,13:10:00,DRY,1.87,20.37,27.0,778.00,1206.4
2020-06-27,13:15:00,DRY,2.15,20.80,27.0,777.50,1203.8
2020-06-27,13:20:00,DRY,1.83,20.63,30.3,778.00,1209.4
2020-06-27,13:25:00,DRY,2.60,20.50,33.0,778.00,1208.2
2020-06-27,13:30:00,DRY,3.30,20.90,32.0,778.00,1204.4
2020-06-27,13:35:00,DRY,2.80,20.70,28.0,777.00,1206.3
2020-06-27,13:40:00,DRY,2.93,21.03,32.7,777.00,1203.2
2020-06-27,13:45:00,DRY,0.80,20.70,28.0,778.00,1205.8
2020-06-27,13:50:00,DRY,3.13,20.63,33.0,777.67,1202.0
2020-06-27,13:55:00,DRY,2.15,20.20,34.0,778.00,1197.2
2020-06-27,14:00:00,DRY,1.73,19.63,32.7,777.33,1195.8
2020-06-27,14:05:00,DRY,1.90,20.60,29.0,777.50,1191.1
2020-06-27,14:10:00,DRY,2.53,20.77,32.3,777.33,1187.4
2020-06-27,14:15:00,DRY,2.70,20.15,35.0,777.00,1179.8
2020-06-27,14:20:00,DRY,2.40,20.40,32.0,777.33,1177.8
2020-06-27,14:25:00,DRY,2.40,19.80,32.0,778.00,1169.1
2020-06-27,14:30:00,DRY,2.80,20.33,32.0,777.67,1166.4
2020-06-27,14:35:00,DRY,2.30,20.05,32.0,778.00,1158.1
2020-06-27,14:40:00,DRY,2.23,19.67,30.7,778.00,1150.4
2020-06-27,14:45:00,DRY,2.30,19.70,32.5,777.50,1144.5
2020-06-27,14:50:00,DRY,2.60,20.13,32.0,777.33,1134.7
2020-06-27,14:55:00,DRY,2.85,20.40,34.5,777.00,1128.8
2020-06-27,15:00:00,DRY,2.30,20.20,34.3,777.00,1117.9
2020-06-27,15:05:00,DRY,2.40,19.90,35.0,777.50,1108.1
2020-06-27,15:10:00,DRY,2.97,19.80,36.3,777.00,1095.7
2020-06-27,15:15:00,DRY,2.75,19.85,35.5,777.00,1086.7
2020-06-27,15:20:00,DRY,2.50,19.83,35.3,777.00,1075.9
2020-06-27,15:25:00,DRY,2.30,20.00,33.0,777.00,1062.9
2020-06-27,15:30:00,DRY,2.27,20.23,31.3,777.00,1052.9
2020-06-27,15:35:00,DRY,2.55,20.00,35.0,777.00,1040.2
2020-06-27,15:40:00,DRY,2.53,19.33,34.7,777.00,1028.1
2020-06-27,15:45:00,DRY,2.60,20.45,32.0,777.00,1014.8
2020-06-27,15:50:00,DRY,2.50,20.03,33.0,777.00,1001.7
2020-06-27,15:55:00,DRY,1.95,19.35,32.5,777.00,988.0
2020-06-27,16:00:00,DRY,2.60,19.77,31.7,777.00,974.9
2020-06-27,16:05:00,DRY,1.05,20.05,28.5,777.00,960.2
2020-06-27,16:10:00,DRY,2.47,20.10,29.7,777.00,945.8
2020-06-27,16:15:00,DRY,2.50,20.20,27.5,777.00,929.2
2020-06-27,16:20:00,DRY,1.83,20.57,25.0,777.00,913.3
2020-06-27,16:25:00,DRY,2.25,20.70,23.0,777.00,899.2
2020-06-27,16:30:00,DRY,2.60,20.37,26.0,777.00,880.3
2020-06-27,16:35:00,DRY,3.45,20.95,22.5,777.00,864.2
2020-06-27,16:40:00,DRY,3.37,20.87,25.0,777.00,846.9
2020-06-27,16:45:00,DRY,1.95,20.45,22.5,777.00,828.5
2020-06-27,16:50:00,DRY,2.10,19.80,22.3,777.00,811.8
2020-06-27,16:55:00,DRY,2.10,20.35,22.0,777.00,794.4
2020-06-27,17:00:00,DRY,2.40,20.60,23.0,777.00,774.0
2020-06-27,17:05:00,DRY,2.25,20.25,19.0,777.00,756.7
2020-06-27,17:10:00,DRY,2.47,21.10,18.7,777.00,737.3
2020-06-27,17:15:00,DRY,2.85,20.30,16.0,777.00,718.3
2020-06-27,17:20:00,DRY,1.93,20.47,15.3,777.00,698.6
2020-06-27,17:25:00,DRY,2.75,20.80,17.0,777.00,678.6
2020-06-27,17:30:00,DRY,2.73,20.50,18.0,777.00,658.9
2020-06-27,17:35:00,DRY,2.55,20.85,15.0,777.00,638.5
2020-06-27,17:40:00,DRY,2.80,20.93,14.0,777.00,617.3
2020-06-27,17:45:00,DRY,3.00,20.40,14.0,777.00,597.5
2020-06-27,17:50:00,DRY,1.87,20.57,11.3,777.00,576.4
2020-06-27,17:55:00,DRY,2.60,20.20,13.5,777.00,555.0
2020-06-27,18:00:00,DRY,2.63,20.10,15.7,777.00,533.6
2020-06-27,18:05:00,DRY,2.05,20.35,17.5,777.00,512.1
2020-06-27,18:10:00,DRY,2.23,20.50,17.0,777.00,489.1
2020-06-27,18:15:00,DRY,2.35,20.55,12.0,777.00,469.2
2020-06-27,18:20:00,DRY,1.97,20.23,16.7,777.00,447.2
2020-06-27,18:25:00,DRY,2.75,20.15,16.0,777.00,425.9
2020-06-27,18:30:00,DRY,2.50,19.87,16.7,777.00,403.7
2020-06-27,18:35:00,DRY,1.70,19.50,13.5,777.00,380.9
2020-06-27,18:40:00,DRY,2.27,19.77,12.3,777.00,360.1
2020-06-27,18:45:00,DRY,2.40,19.75,14.0,777.00,336.2
2020-06-27,18:50:00,DRY,1.67,19.30,15.7,777.00,315.6
2020-06-27,18:55:00,DRY,1.85,19.35,12.5,777.00,294.1
2020-06-27,19:00:00,DRY,2.27,19.30,13.0,777.00,273.2
2020-06-27,19:05:00,DRY,1.90,19.35,12.5,777.00,252.1
2020-06-27,19:10:00,DRY,1.97,19.20,11.7,777.00,229.9
2020-06-27,19:15:00,DRY,2.35,18.85,11.0,777.00,210.3
2020-06-27,19:20:00,DRY,2.10,18.70,13.3,777.00,190.2
2020-06-27,19:25:00,DRY,2.00,18.75,13.0,777.00,170.1
2020-06-27,19:30:00,DRY,2.00,18.77,10.3,777.00,152.2
2020-06-27,19:35:00,DRY,1.80,18.60,10.5,777.00,130.6
2020-06-27,19:40:00,DRY,2.23,18.50,10.7,777.33,105.2
2020-06-27,19:45:00,DRY,2.15,18.35,10.0,777.00,81.9
2020-06-27,19:50:00,DRY,2.57,18.27,11.0,777.33,61.0
2020-06-27,19:55:00,DRY,2.55,18.05,12.0,778.00,43.2
2020-06-27,20:00:00,DRY,2.20,17.80,12.7,777.33,28.5
2020-06-27,20:05:00,DRY,2.45,17.40,12.5,778.00,17.6
2020-06-27,20:10:00,DRY,2.27,17.10,12.0,778.00,13.3
2020-06-27,20:15:00,DRY,2.25,17.00,10.5,778.00,9.5
2020-06-27,20:20:00,DRY,2.60,16.77,9.3,778.00,6.0
2020-06-27,20:25:00,DRY,2.60,16.55,7.5,778.00,2.6
2020-06-27,20:30:00,DRY,2.30,16.43,8.0,778.00,1.8
2020-06-27,20:35:00,DRY,1.80,16.60,8.0,778.00,2.4
2020-06-27,20:40:00,DRY,2.30,16.57,8.3,778.00,1.6
2020-06-27,20:45:00,DRY,2.65,16.90,8.0,778.00,0.9
2020-06-27,20:50:00,DRY,1.93,16.93,8.3,778.00,1.7
2020-06-27,20:55:00,DRY,2.10,17.10,8.0,778.00,0.8
2020-06-27,21:00:00,DRY,2.23,17.00,8.0,778.00,1.2
2020-06-27,21:05:00,DRY,2.80,16.90,8.0,778.00,1.5
2020-06-27,21:10:00,DRY,2.23,16.80,8.0,778.00,1.2
2020-06-27,21:15:00,DRY,2.30,16.60,8.0,778.00,0.8
2020-06-27,21:20:00,DRY,2.30,16.63,8.0,778.00,1.2
2020-06-27,21:25:00,DRY,2.80,16.55,8.0,778.00,0.9
2020-06-27,21:30:00,DRY,3.03,16.83,7.7,778.00,2.0
2020-06-27,21:35:00,DRY,3.30,16.75,7.5,778.00,1.4
2020-06-27,21:40:00,DRY,3.07,16.80,8.0,778.00,1.1
2020-06-27,21:45:00,DRY,3.10,16.80,8.0,778.00,1.5
2020-06-27,21:50:00,DRY,3.53,16.80,8.0,778.00,1.6
2020-06-27,21:55:00,DRY,3.45,16.80,8.0,778.00,1.4
2020-06-27,22:00:00,DRY,3.57,16.83,7.7,778.00,1.1
2020-06-27,22:05:00,DRY,3.10,16.80,8.0,778.00,1.4
2020-06-27,22:10:00,DRY,3.53,16.60,8.0,778.00,1.0
2020-06-27,22:15:00,,,,,,
2020-06-27,22:20:00,,,,,,
2020-06-27,22:25:00,DRY,3.15,16.25,9.0,778.00,0.9
2020-06-27,22:30:00,DRY,2.70,16.07,10.0,778.00,1.3
2020-06-27,22:35:00,DRY,3.20,16.00,9.5,778.00,1.6
2020-06-27,22:40:00,DRY,3.07,16.13,9.3,778.33,1.4
2020-06-27,22:45:00,DRY,2.80,16.20,9.0,778.00,1.0
2020-06-27,22:50:00,DRY,2.80,16.07,9.0,778.00,1.3
2020-06-27,22:55:00,DRY,3.15,16.30,9.0,778.00,1.5
2020-06-27,23:00:00,DRY,3.17,16.23,9.0,779.00,1.0
2020-06-27,23:05:00,DRY,2.95,16.60,8.0,778.50,1.1
2020-06-27,23:10:00,DRY,2.53,16.47,8.3,778.33,1.2
2020-06-27,23:15:00,DRY,2.45,16.60,7.5,778.00,1.1
2020-06-27,23:20:00,DRY,2.23,16.70,8.0,778.33,1.2
2020-06-27,23:25:00,DRY,2.30,16.80,7.0,778.50,1.4
2020-06-27,23:30:00,DRY,3.03,17.17,7.0,778.00,0.8
2020-06-27,23:35:00,DRY,2.85,17.40,7.0,778.00,1.1
2020-06-27,23:40:00,DRY,2.30,17.33,7.0,778.00,1.1
2020-06-27,23:45:00,DRY,2.40,17.40,7.0,778.00,0.5
2020-06-27,23:50:00,DRY,1.93,17.57,7.0,778.00,0.9
2020-06-27,23:55:00,DRY,2.65,17.55,7.0,778.00,0.6
2020-06-28,00:00:00,DRY,2.27,17.70,7.0,778.00,1.3
2020-06-28,00:05:00,DRY,2.45,17.80,6.0,778.00,1.4
2020-06-28,00:10:00,DRY,1.47,17.83,6.0,778.00,1.7
2020-06-28,00:15:00,DRY,1.95,17.70,6.0,778.00,0.9
2020-06-28,00:20:00,DRY,1.77,17.87,6.0,778.00,0.9
2020-06-28,00:25:00,DRY,1.80,17.85,6.5,778.00,0.4
2020-06-28,00:30:00,DRY,2.10,17.15,7.0,778.00,1.4
2020-06-28,00:35:00,DRY,2.25,17.05,7.5,778.00,1.3
2020-06-28,00:40:00,DRY,2.33,16.70,7.0,778.00,0.8
2020-06-28,00:45:00,DRY,1.95,16.90,7.0,778.00,1.3
2020-06-28,00:50:00,DRY,1.70,17.13,7.0,778.00,0.4
2020-06-28,00:55:00,DRY,1.70,16.95,7.0,778.00,1.8
2020-06-28,01:00:00,DRY,1.90,16.77,7.3,778.00,1.5
2020-06-28,01:05:00,DRY,1.85,16.50,8.0,778.00,2.0
2020-06-28,01:10:00,DRY,2.13,16.60,8.3,778.00,1.0
2020-06-28,01:15:00,DRY,2.15,16.35,9.0,778.00,0.9
2020-06-28,01:20:00,DRY,2.73,15.93,9.3,778.00,0.9
2020-06-28,01:25:00,DRY,2.50,15.50,10.0,778.00,1.2
2020-06-28,01:30:00,DRY,2.43,16.20,9.0,778.00,1.6
2020-06-28,01:35:00,DRY,2.60,15.90,9.0,778.00,0.6
2020-06-28,01:40:00,DRY,2.67,15.40,10.0,778.00,0.8
2020-06-28,01:45:00,DRY,2.65,15.90,9.0,778.00,0.6
2020-06-28,01:50:00,DRY,2.40,16.13,9.0,778.00,1.5
2020-06-28,01:55:00,DRY,2.55,16.00,9.0,778.00,1.2
2020-06-28,02:00:00,DRY,2.50,16.07,9.0,778.00,0.8
2020-06-28,02:05:00,DRY,2.50,15.90,9.0,778.00,1.2
2020-06-28,02:10:00,DRY,2.47,15.93,9.0,778.00,1.1
2020-06-28,02:15:00,DRY,2.30,15.95,9.5,778.00,1.4
2020-06-28,02:20:00,DRY,2.03,15.53,10.0,778.00,1.5
2020-06-28,02:25:00,DRY,1.40,15.25,10.0,778.00,0.9
2020-06-28,02:30:00,DRY,0.73,15.27,9.3,778.00,0.8
2020-06-28,02:35:00,DRY,1.40,15.75,9.0,778.00,1.2
2020-06-28,02:40:00,DRY,1.27,15.80,9.0,778.00,2.2
2020-06-28,02:45:00,DRY,0.70,15.95,8.5,777.00,1.2
2020-06-28,02:50:00,DRY,0.57,16.07,8.7,777.67,1.2
2020-06-28,02:55:00,DRY,1.20,15.70,9.0,777.00,1.1
2020-06-28,03:00:00,DRY,1.57,16.23,8.3,777.00,0.9
2020-06-28,03:05:00,DRY,1.65,16.60,8.5,777.00,1.1
2020-06-28,03:10:00,DRY,1.90,16.03,8.0,777.33,1.6
2020-06-28,03:15:00,DRY,1.95,16.10,8.5,777.00,1.0
2020-06-28,03:20:00,DRY,2.50,15.93,9.7,777.00,1.1
2020-06-28,03:25:00,DRY,2.25,16.05,10.0,777.00,2.0
2020-06-28,03:30:00,DRY,1.97,16.57,8.7,777.67,0.9
2020-06-28,03:35:00,DRY,2.50,16.05,9.5,777.00,0.8
2020-06-28,03:40:00,DRY,2.53,15.57,9.7,777.00,1.3
2020-06-28,03:45:00,DRY,1.90,15.20,10.0,777.00,1.2
2020-06-28,03:50:00,DRY,2.37,15.67,10.0,777.00,0.6
2020-06-28,03:55:00,DRY,3.10,15.75,11.0,777.00,1.5
2020-06-28,04:00:00,DRY,3.23,15.67,11.0,777.00,1.6
2020-06-28,04:05:00,DRY,3.25,15.45,11.0,777.00,1.1
2020-06-28,04:10:00,DRY,3.13,15.43,11.3,777.00,2.1
2020-06-28,04:15:00,DRY,2.65,15.55,11.0,777.00,1.3
2020-06-28,04:20:00,DRY,1.87,16.07,9.0,777.00,1.7
2020-06-28,04:25:00,DRY,2.00,15.65,10.5,777.00,1.7
2020-06-28,04:30:00,DRY,1.37,15.07,10.7,777.00,1.3
2020-06-28,04:35:00,DRY,1.10,15.55,10.0,777.00,1.4
2020-06-28,04:40:00,DRY,1.20,15.23,10.3,777.00,1.0
2020-06-28,04:45:00,DRY,0.90,14.45,11.0,777.00,0.7
2020-06-28,04:50:00,DRY,0.87,14.63,11.0,777.00,1.4
2020-06-28,04:55:00,DRY,1.25,14.70,11.0,777.00,1.4
2020-06-28,05:00:00,DRY,1.40,14.07,12.0,777.00,1.1
2020-06-28,05:05:00,DRY,1.25,14.05,11.5,777.00,1.3
2020-06-28,05:10:00,DRY,1.30,14.90,10.0,777.00,1.4
2020-06-28,05:15:00,DRY,0.95,15.25,9.5,777.00,1.2
2020-06-28,05:20:00,DRY,1.73,15.07,10.0,777.00,0.4
2020-06-28,05:25:00,DRY,1.10,15.45,9.0,777.00,1.0
2020-06-28,05:30:00,DRY,1.10,15.47,10.0,777.00,1.0
2020-06-28,05:35:00,DRY,1.20,15.75,9.5,777.50,1.0
2020-06-28,05:40:00,DRY,0.57,15.57,9.0,777.00,1.1
2020-06-28,05:45:00,DRY,0.60,15.90,8.0,777.00,0.9
2020-06-28,05:50:00,DRY,0.57,15.77,8.0,777.33,1.1
2020-06-28,05:55:00,DRY,0.45,15.50,8.5,777.50,2.5
2020-06-28,06:00:00,DRY,0.67,15.43,9.0,777.67,2.7
2020-06-28,06:05:00,DRY,1.10,15.70,9.0,777.00,3.5
2020-06-28,06:10:00,DRY,0.90,15.47,10.0,777.33,5.3
2020-06-28,06:15:00,DRY,0.70,15.55,9.0,778.00,7.5
2020-06-28,06:20:00,DRY,1.50,15.50,9.7,777.67,10.3
2020-06-28,06:25:00,DRY,0.45,15.30,9.0,777.50,31.1
2020-06-28,06:30:00,DRY,0.97,15.80,8.0,778.00,48.6
2020-06-28,06:35:00,DRY,1.25,16.25,8.5,778.00,45.0
2020-06-28,06:40:00,DRY,0.83,16.40,7.7,777.33,51.4
2020-06-28,06:45:00,DRY,0.85,16.80,7.0,778.00,118.2
2020-06-28,06:50:00,DRY,1.23,16.43,8.0,778.00,139.2
2020-06-28,06:55:00,DRY,1.75,17.05,6.5,778.00,157.9
2020-06-28,07:00:00,DRY,0.70,16.47,7.3,778.00,178.3
2020-06-28,07:05:00,DRY,0.25,17.05,4.5,778.00,198.2
2020-06-28,07:10:00,DRY,0.77,18.00,6.3,778.00,220.3
2020-06-28,07:15:00,DRY,1.05,17.30,7.5,777.50,241.2
2020-06-28,07:20:00,DRY,0.53,17.77,6.3,778.00,264.1
2020-06-28,07:25:00,DRY,0.50,18.30,7.5,778.00,286.1
2020-06-28,07:30:00,DRY,1.23,18.13,7.7,778.00,308.9
2020-06-28,07:35:00,DRY,1.55,17.35,9.5,778.00,330.6
2020-06-28,07:40:00,DRY,1.93,16.77,11.7,778.00,352.7
2020-06-28,07:45:00,DRY,2.20,16.55,12.0,778.00,374.8
2020-06-28,07:50:00,DRY,1.70,16.50,12.7,778.00,398.0
2020-06-28,07:55:00,DRY,2.60,16.45,13.0,778.00,419.6
2020-06-28,08:00:00,DRY,2.27,16.60,12.7,778.00,441.6
2020-06-28,08:05:00,DRY,2.60,16.55,14.0,778.00,464.2
2020-06-28,08:10:00,DRY,2.17,16.37,14.7,778.00,486.1
2020-06-28,08:15:00,DRY,2.55,16.60,15.0,778.00,506.5
2020-06-28,08:20:00,DRY,2.37,16.77,14.0,778.00,528.0
2020-06-28,08:25:00,DRY,2.25,16.75,13.5,778.00,548.2
2020-06-28,08:30:00,DRY,2.57,16.90,14.0,778.00,570.7
2020-06-28,08:35:00,DRY,2.75,17.15,13.0,778.00,590.3
2020-06-28,08:40:00,DRY,1.97,16.90,17.3,778.00,612.2
2020-06-28,08:45:00,DRY,1.85,17.00,16.5,778.00,633.5
2020-06-28,08:50:00,DRY,2.43,16.90,18.0,778.00,652.7
2020-06-28,08:55:00,DRY,2.10,16.95,15.5,778.00,673.2
2020-06-28,09:00:00,DRY,2.77,17.07,19.3,778.00,692.2
2020-06-28,09:05:00,DRY,3.40,16.70,17.0,778.00,712.4
2020-06-28,09:10:00,DRY,3.50,16.80,17.3,778.00,731.6
2020-06-28,09:15:00,DRY,2.95,16.95,18.0,778.00,749.5
2020-06-28,09:20:00,DRY,2.80,17.10,17.3,778.00,770.5
2020-06-28,09:25:00,DRY,2.60,17.30,16.5,778.00,789.8
2020-06-28,09:30:00,DRY,2.53,17.30,19.3,778.00,807.0
2020-06-28,09:35:00,DRY,2.75,17.35,18.5,778.00,823.8
2020-06-28,09:40:00,DRY,3.77,17.43,18.3,778.00,842.1
2020-06-28,09:45:00,DRY,3.35,17.20,19.0,778.00,859.2
2020-06-28,09:50:00,DRY,3.10,17.30,20.7,778.00,877.1
2020-06-28,09:55:00,DRY,3.55,17.25,17.5,778.00,893.7
2020-06-28,10:00:00,DRY,3.77,17.30,18.0,778.00,908.7
2020-06-28,10:05:00,DRY,4.85,17.45,19.5,778.00,924.9
2020-06-28,10:10:00,DRY,3.13,17.13,16.7,778.00,940.2
2020-06-28,10:15:00,DRY,3.55,17.25,17.5,778.00,954.0
2020-06-28,10:20:00,DRY,3.77,17.57,19.0,778.00,969.5
2020-06-28,10:25:00,DRY,3.85,17.75,19.0,778.00,985.2
2020-06-28,10:30:00,DRY,3.63,17.90,19.3,778.00,997.7
2020-06-28,10:35:00,DRY,2.80,17.95,19.0,778.00,1012.2
2020-06-28,10:40:00,DRY,2.67,17.93,20.7,778.00,1024.1
2020-06-28,10:45:00,DRY,3.40,17.40,19.5,778.00,1039.2
2020-06-28,10:50:00,DRY,4.37,17.63,21.7,778.00,1051.4
2020-06-28,10:55:00,DRY,4.30,17.60,18.0,778.00,1062.1
2020-06-28,11:00:00,DRY,4.13,17.53,20.7,778.00,1075.5
2020-06-28,11:05:00,DRY,4.60,17.15,24.0,778.00,1085.6
2020-06-28,11:10:00,DRY,3.27,17.67,21.7,778.00,1097.3
2020-06-28,11:15:00,DRY,2.30,17.65,21.0,778.00,1107.4
2020-06-28,11:20:00,DRY,3.53,18.33,23.0,778.00,1116.2
2020-06-28,11:25:00,DRY,2.00,17.65,23.5,778.00,1126.8
2020-06-28,11:30:00,DRY,2.67,17.53,22.0,778.00,1136.6
2020-06-28,11:35:00,DRY,2.85,17.50,26.0,778.00,1143.6
2020-06-28,11:40:00,DRY,3.50,17.57,28.0,778.00,1150.4
2020-06-28,11:45:00,DRY,3.90,17.60,26.0,778.00,1159.8
2020-06-28,11:50:00,DRY,4.30,17.97,24.3,778.00,1166.5
2020-06-28,11:55:00,DRY,2.90,17.80,29.5,778.00,1170.8
2020-06-28,12:00:00,DRY,2.90,18.40,20.7,778.00,1179.7
2020-06-28,12:05:00,DRY,3.00,18.40,28.5,778.00,1184.7
2020-06-28,12:10:00,DRY,3.17,18.13,31.3,778.00,1189.2
2020-06-28,12:15:00,DRY,3.60,18.15,30.0,778.00,1194.7
2020-06-28,12:20:00,DRY,3.00,18.97,28.0,778.00,1199.2
2020-06-28,12:25:00,DRY,4.20,18.75,26.5,778.00,1199.5
2020-06-28,12:30:00,DRY,3.30,19.10,28.7,778.00,1204.5
2020-06-28,12:35:00,DRY,3.25,18.80,25.5,778.00,1208.4
2020-06-28,12:40:00,DRY,2.63,18.40,25.7,778.00,1208.8
2020-06-28,12:45:00,DRY,2.90,18.80,26.0,778.00,1211.2
2020-06-28,12:50:00,DRY,3.80,18.73,31.0,778.00,1210.1
2020-06-28,12:55:00,DRY,3.60,18.20,27.5,778.00,1212.2
2020-06-28,13:00:00,DRY,3.53,18.37,28.7,778.00,1214.7
2020-06-28,13:05:00,DRY,3.40,18.75,32.5,778.00,1214.2
2020-06-28,13:10:00,DRY,2.57,18.80,29.7,778.00,1214.6
2020-06-28,13:15:00,DRY,3.15,18.75,33.5,778.00,1216.7
2020-06-28,13:20:00,DRY,3.10,18.63,30.7,778.00,1215.4
2020-06-28,13:25:00,DRY,2.65,18.05,25.5,778.00,1215.4
2020-06-28,13:30:00,DRY,2.70,18.70,28.0,778.00,1216.5
2020-06-28,13:35:00,DRY,2.30,19.20,30.0,778.00,1217.4
2020-06-28,13:40:00,DRY,2.87,18.73,32.3,778.00,1213.1
2020-06-28,13:45:00,DRY,2.15,19.00,32.0,778.00,1211.8
2020-06-28,13:50:00,DRY,2.77,19.00,30.7,778.00,1209.6
2020-06-28,13:55:00,DRY,2.40,18.60,34.0,778.00,1211.6
2020-06-28,14:00:00,DRY,2.43,19.20,28.7,778.00,1206.0
2020-06-28,14:05:00,DRY,3.10,19.15,32.0,778.00,1204.0
2020-06-28,14:10:00,DRY,3.07,19.13,26.7,778.00,1196.8
2020-06-28,14:15:00,DRY,2.90,19.35,35.0,778.00,1190.4
2020-06-28,14:20:00,DRY,2.53,18.67,31.7,778.00,1185.0
2020-06-28,14:25:00,DRY,2.80,19.20,31.5,778.00,1181.2
2020-06-28,14:30:00,DRY,2.57,19.27,34.7,778.00,1175.9
2020-06-28,14:35:00,DRY,2.90,18.90,34.0,778.00,1169.5
2020-06-28,14:40:00,DRY,2.13,19.47,31.0,778.00,1163.2
2020-06-28,14:45:00,DRY,4.25,18.75,34.5,778.00,1152.7
2020-06-28,14:50:00,DRY,1.93,18.53,32.0,778.00,1147.5
2020-06-28,14:55:00,DRY,3.50,18.50,35.5,778.00,1138.2
2020-06-28,15:00:00,DRY,2.10,18.77,34.0,778.00,1128.5
2020-06-28,15:05:00,DRY,2.60,19.35,33.5,778.00,1117.2
2020-06-28,15:10:00,DRY,2.07,18.47,34.7,778.00,1107.3
2020-06-28,15:15:00,DRY,2.60,18.50,32.0,778.00,1095.6
2020-06-28,15:20:00,DRY,2.30,18.60,34.0,778.00,1085.7
2020-06-28,15:25:00,DRY,3.55,18.80,36.5,778.00,1074.2
2020-06-28,15:30:00,DRY,2.67,18.47,36.3,778.00,1061.6
2020-06-28,15:35:00,DRY,2.60,18.45,40.5,778.00,1048.2
2020-06-28,15:40:00,DRY,2.60,18.00,36.7,778.00,1038.2
2020-06-28,15:45:00,DRY,3.10,18.00,37.0,778.00,1022.8
2020-06-28,15:50:00,DRY,2.20,17.70,35.0,778.00,1009.8
2020-06-28,15:55:00,DRY,2.70,17.65,38.5,778.00,996.7
2020-06-28,16:00:00,DRY,4.70,17.70,35.7,778.00,981.9
2020-06-28,16:05:00,DRY,2.55,18.10,34.5,778.00,967.7
2020-06-28,16:10:00,DRY,3.07,17.87,35.3,778.00,948.3
2020-06-28,16:15:00,DRY,3.15,17.85,34.0,778.00,933.8
2020-06-28,16:20:00,DRY,3.43,17.53,34.0,778.00,919.2
2020-06-28,16:25:00,DRY,2.60,17.85,31.0,778.00,901.7